[Date Prev][Date Next][Thread Prev][Thread Next] - [Date Index][Thread Index][Author Index]
2 Line ISS Keps 10-15
- Subject: [sarex] 2 Line ISS Keps 10-15
- From: "Dave Larsen PhD" <doc@xxxxxxxxxxx>
- Date: Wed, 15 Oct 2003 04:15:08 -0700
ISS
1 25544U 98067A 03288.36222222 .00014613 00000-0 16697-3 0 6435
2 25544 51.6295 134.5810 0006584 42.4784 329.8979 15.62418593279788
----
Via the sarex mailing list at AMSAT.ORG courtesy of AMSAT-NA.
To unsubscribe, send "unsubscribe sarex" to Majordomo@amsat.org
AMSAT Home